Location: Bruderhein
(53.8035°N, 112.9265°W)
Time: 05:38:52
(UTC+00:00)

AO-7 - Visible Passes

Search period start: 21 March 2023 00:00
Search period end: 31 March 2023 00:00
Orbit: 1440 x 1458 km, 101.9° (Epoch: 20 March)

Date Brightness Start Highest point End Pass type
(mag) Time Alt. Az. Time Alt. Az. Time Alt. Az.
21 Mar ? 10:05:49 10° ENE 10:06:33 10° ENE 10:07:18 10° E visible
21 Mar ? 11:53:45 10° NNE 12:01:43 45° E 12:09:37 10° S visible
22 Mar ? 10:54:37 10° NE 11:00:51 22° E 11:07:01 10° SE visible
22 Mar ? 12:46:31 10° NNE 12:54:57 79° ESE 13:03:17 10° SSW visible
23 Mar ? 11:46:45 10° NNE 11:54:35 42° E 12:02:20 10° SSE visible
24 Mar ? 10:47:45 10° NE 10:53:37 20° E 10:59:27 10° SE visible
24 Mar ? 12:39:27 10° NNE 12:47:52 73° ESE 12:56:11 10° SSW visible
25 Mar ? 11:39:44 10° NNE 11:47:26 38° E 11:55:02 10° SSE visible
26 Mar ? 10:40:56 10° NE 10:46:23 19° E 10:51:49 10° SE visible
26 Mar ? 12:32:24 10° NNE 12:40:47 68° ESE 12:49:03 10° S visible
27 Mar ? 11:32:45 10° NNE 11:40:16 35° E 11:47:43 10° SSE visible
28 Mar ? 10:34:09 10° NE 10:39:09 17° E 10:44:07 10° ESE visible
28 Mar ? 12:25:21 10° NNE 12:33:41 63° ESE 12:41:54 10° S visible
29 Mar ? 11:25:46 10° NNE 11:33:06 33° E 11:40:22 10° SSE visible
30 Mar ? 10:27:27 10° NE 10:31:54 15° E 10:36:19 10° ESE visible
30 Mar ? 12:18:18 10° NNE 12:26:34 59° ESE 12:34:44 10° S visible
